Weather History for North Wilkesboro, NC

Change the Weather History Date:

Sunday, December 30, 2012

  Actual Average Record
Temperature  
Mean Temperature 36 °F -  
Max Temperature 44 °F 47 °F 77 °F (1984)
Min Temperature 28 °F 24 °F 9 °F (1977)
Degree Days  
Heating Degree Days 29    
Moisture  
Dew Point 18 °F    
Average Humidity 52    
Maximum Humidity 75    
Minimum Humidity 31    
Precipitation  
Precipitation 0.00 in - - ()
Sea Level Pressure  
Sea Level Pressure 30.29 in    
Wind  
Wind Speed 7 mph (WNW)    
Max Wind Speed 16 mph    
Max Gust Speed 30 mph    
Visibility 10 miles    
Events      
Averages and records for this station are not official NWS values.
T = Trace of Precipitation, MM = Missing Value Source: NWS Daily Summary

Daily Weather History Graph

Daily Weather History Graph

Search for Another Location

Airport:

Trip Planner

Search our weather history database for the weather conditions in past years. The results will help you decide how hot, cold, wet, or windy it might be!

Date:

Astronomy

Dec. 30, 2012 Rise Set
Actual Time 7:35 AM EST 5:19 PM EST
Civil Twilight 7:06 AM EST 5:47 PM EST
Nautical Twilight 6:34 AM EST 6:20 PM EST
Astronomical Twilight 6:03 AM EST 6:51 PM EST
Moon 7:44 PM EST (12/30) 8:47 AM EST (12/30)
Length of Visible Light 10h 41m
Length of Day
9h 43m
Waning Gibbous, 95% of the Moon is Illuminated
Dec 30
Waning Gibbous
Jan 4
Last Quarter
Jan 11
New
Jan 18
First Quarter
Jan 26
Full

Hourly Weather History & Observations

Time (EST) Temp. Windchill Dew Point Humidity Pressure Visibility Wind Dir Wind Speed Gust Speed Precip Events Conditions
12:15 AM 33.8 °F 29.6 °F 21.2 °F 60% 30.06 in 10.0 mi WNW 4.6 mph - N/A   Overcast
12:35 AM 32.0 °F 23.0 °F 24.8 °F 75% 30.07 in 7.0 mi WNW 11.5 mph 19.6 mph N/A   Overcast
12:55 AM 32.0 °F 24.8 °F 23.0 °F 69% 30.06 in 10.0 mi NW 8.1 mph 16.1 mph N/A   Overcast
1:15 AM 32.0 °F 23.0 °F 21.2 °F 64% 30.07 in 10.0 mi West 11.5 mph 20.7 mph N/A   Mostly Cloudy
1:35 AM 32.0 °F 21.6 °F 21.2 °F 64% 30.08 in 10.0 mi WNW 15.0 mph 27.6 mph N/A   Overcast
1:55 AM 32.0 °F 22.1 °F 21.2 °F 64% 30.09 in 10.0 mi WNW 13.8 mph 26.5 mph N/A   Overcast
2:15 AM 32.0 °F 23.0 °F 19.4 °F 60% 30.10 in 10.0 mi WNW 11.5 mph 20.7 mph N/A   Overcast
2:35 AM 32.0 °F 23.0 °F 19.4 °F 60% 30.10 in 10.0 mi NW 11.5 mph 20.7 mph N/A   Overcast
2:55 AM 32.0 °F 22.5 °F 19.4 °F 60% 30.12 in 10.0 mi NW 12.7 mph - N/A   Overcast
3:15 AM 32.0 °F 23.0 °F 19.4 °F 60% 30.13 in 10.0 mi WNW 11.5 mph 18.4 mph N/A   Overcast
3:35 AM 32.0 °F 22.5 °F 19.4 °F 60% 30.14 in 10.0 mi WNW 12.7 mph 24.2 mph N/A   Overcast
3:55 AM 32.0 °F 23.0 °F 19.4 °F 60% 30.15 in 10.0 mi WNW 11.5 mph 29.9 mph N/A   Overcast
4:15 AM 32.0 °F 21.2 °F 19.4 °F 60% 30.15 in 10.0 mi West 16.1 mph 20.7 mph N/A   Overcast
4:35 AM 32.0 °F 23.0 °F 19.4 °F 60% 30.16 in 10.0 mi West 11.5 mph 21.9 mph N/A   Mostly Cloudy
4:55 AM 32.0 °F 27.5 °F 19.4 °F 60% 30.17 in 10.0 mi WNW 4.6 mph - N/A   Scattered Clouds
5:15 AM 30.2 °F 22.6 °F 17.6 °F 60% 30.17 in 10.0 mi WNW 8.1 mph - N/A   Clear
5:35 AM 30.2 °F 18.9 °F 17.6 °F 60% 30.19 in 10.0 mi NNW 16.1 mph 23.0 mph N/A   Clear
5:55 AM 30.2 °F 22.6 °F 17.6 °F 60% 30.20 in 10.0 mi WSW 8.1 mph 18.4 mph N/A   Clear
6:15 AM 30.2 °F 24.3 °F 15.8 °F 55% 30.22 in 10.0 mi WNW 5.8 mph - N/A   Clear
6:35 AM 30.2 °F 20.8 °F 15.8 °F 55% 30.22 in 10.0 mi WNW 11.5 mph 17.3 mph N/A   Clear
7:15 AM 30.2 °F 21.3 °F 17.6 °F 60% 30.24 in 10.0 mi WNW 10.4 mph 20.7 mph N/A   Clear
7:55 AM 30.2 °F - 17.6 °F 60% 30.28 in 10.0 mi Calm Calm - N/A   Clear
8:15 AM 30.2 °F 26.7 °F 17.6 °F 60% 30.28 in 10.0 mi WNW 3.5 mph - N/A   Clear
8:35 AM 32.0 °F - 17.6 °F 55% 30.27 in 10.0 mi Calm Calm - N/A   Clear
8:41 AM 32.0 °F - 15.8 °F 51% 30.28 in 10.0 mi Calm Calm - N/A   Clear
8:55 AM 32.0 °F 26.4 °F 17.6 °F 55% 30.29 in 10.0 mi SE 5.8 mph - N/A   Clear
9:15 AM 32.0 °F 28.7 °F 17.6 °F 55% 30.30 in 10.0 mi SW 3.5 mph - N/A   Clear
9:35 AM 33.8 °F 27.7 °F 17.6 °F 52% 30.32 in 10.0 mi WSW 6.9 mph - N/A   Clear
9:55 AM 33.8 °F 27.7 °F 17.6 °F 52% 30.34 in 10.0 mi SW 6.9 mph - N/A   Clear
10:15 AM 35.6 °F 29.9 °F 17.6 °F 48% 30.34 in 10.0 mi SW 6.9 mph - N/A   Clear
10:35 AM 35.6 °F 30.7 °F 17.6 °F 48% 30.35 in 10.0 mi WSW 5.8 mph - N/A   Clear
10:55 AM 37.4 °F 32.8 °F 17.6 °F 45% 30.34 in 10.0 mi SW 5.8 mph - N/A   Clear
11:15 AM 37.4 °F 33.8 °F 17.6 °F 45% 30.35 in 10.0 mi West 4.6 mph - N/A   Clear
11:35 AM 39.2 °F 33.0 °F 17.6 °F 42% 30.34 in 10.0 mi WNW 9.2 mph - N/A   Clear
11:55 AM 41.0 °F 36.4 °F 15.8 °F 36% 30.34 in 10.0 mi WNW 6.9 mph - N/A   Clear
12:15 PM 41.0 °F 35.8 °F 15.8 °F 36% 30.34 in 10.0 mi WNW 8.1 mph - N/A   Clear
12:35 PM 41.0 °F - 14.0 °F 33% 30.33 in 10.0 mi Calm Calm - N/A   Clear
12:55 PM 42.8 °F 40.1 °F 17.6 °F 36% 30.33 in 10.0 mi West 4.6 mph - N/A   Clear
1:15 PM 42.8 °F 38.6 °F 17.6 °F 36% 30.34 in 10.0 mi West 6.9 mph - N/A   Clear
1:35 PM 42.8 °F 37.5 °F 15.8 °F 34% 30.33 in 10.0 mi West 9.2 mph - N/A   Clear
1:55 PM 44.6 °F 40.2 °F 15.8 °F 31% 30.33 in 10.0 mi NW 8.1 mph - N/A   Clear
2:15 PM 44.6 °F 40.7 °F 15.8 °F 31% 30.33 in 10.0 mi West 6.9 mph - N/A   Clear
2:35 PM 42.8 °F 38.6 °F 14.0 °F 31% 30.34 in 10.0 mi NW 6.9 mph - N/A   Clear
2:55 PM 42.8 °F 38.0 °F 14.0 °F 31% 30.34 in 10.0 mi NW 8.1 mph - N/A   Clear
3:15 PM 42.8 °F 37.5 °F 14.0 °F 31% 30.34 in 10.0 mi NW 9.2 mph 17.3 mph N/A   Clear
3:35 PM 44.6 °F 39.2 °F 15.8 °F 31% 30.33 in 10.0 mi NW 10.4 mph 16.1 mph N/A   Clear
3:55 PM 42.8 °F - 14.0 °F 31% 30.34 in 10.0 mi Calm Calm - N/A   Clear
4:15 PM 42.8 °F - 14.0 °F 31% 30.34 in 10.0 mi Calm Calm - N/A   Clear
4:35 PM 41.0 °F 37.1 °F 14.0 °F 33% 30.35 in 10.0 mi NW 5.8 mph - N/A   Clear
4:55 PM 41.0 °F - 14.0 °F 33% 30.35 in 10.0 mi Calm Calm - N/A   Clear
5:15 PM 37.4 °F 34.9 °F 14.0 °F 38% 30.35 in 10.0 mi NW 3.5 mph - N/A   Clear
5:35 PM 35.6 °F 31.7 °F 17.6 °F 48% 30.36 in 10.0 mi WNW 4.6 mph - N/A   Clear
5:55 PM 35.6 °F 32.8 °F 15.8 °F 44% 30.37 in 10.0 mi WNW 3.5 mph - N/A   Clear
6:15 PM 35.6 °F 31.7 °F 15.8 °F 44% 30.39 in 10.0 mi NW 4.6 mph - N/A   Clear
6:35 PM 35.6 °F 31.7 °F 15.8 °F 44% 30.39 in 10.0 mi NNW 4.6 mph - N/A   Clear
6:55 PM 33.8 °F 29.6 °F 15.8 °F 48% 30.39 in 10.0 mi NNW 4.6 mph - N/A   Clear
7:15 PM 33.8 °F - 15.8 °F 48% 30.41 in 10.0 mi Calm Calm - N/A   Clear
7:35 PM 32.0 °F - 17.6 °F 55% 30.41 in 10.0 mi Calm Calm - N/A   Clear
7:55 PM 33.8 °F - 15.8 °F 48% 30.41 in 10.0 mi Calm Calm - N/A   Clear
8:15 PM 32.0 °F 28.7 °F 17.6 °F 55% 30.39 in 10.0 mi NW 3.5 mph - N/A   Clear
8:35 PM 32.0 °F - 17.6 °F 55% 30.39 in 10.0 mi Calm Calm - N/A   Clear
8:55 PM 30.2 °F - 19.4 °F 64% 30.39 in 10.0 mi Calm Calm - N/A   Clear
9:15 PM 30.2 °F - 17.6 °F 60% 30.41 in 10.0 mi Calm Calm - N/A   Clear
9:35 PM 28.4 °F 24.6 °F 19.4 °F 69% 30.42 in 10.0 mi West 3.5 mph - N/A   Clear
9:55 PM 30.2 °F - 19.4 °F 64% 30.41 in 10.0 mi Calm Calm - N/A   Clear
10:15 PM 28.4 °F 24.6 °F 19.4 °F 69% 30.41 in 10.0 mi SW 3.5 mph - N/A   Clear
10:35 PM 28.4 °F 24.6 °F 19.4 °F 69% 30.41 in 10.0 mi West 3.5 mph - N/A   Clear
10:55 PM 28.4 °F - 19.4 °F 69% 30.40 in 10.0 mi Calm Calm - N/A   Clear
11:15 PM 28.4 °F - 19.4 °F 69% 30.40 in 10.0 mi Calm Calm - N/A   Clear
11:35 PM 28.4 °F 24.6 °F 19.4 °F 69% 30.39 in 10.0 mi WNW 3.5 mph - N/A   Clear
11:55 PM 28.4 °F - 17.6 °F 64% 30.39 in 10.0 mi Calm Calm - N/A   Clear